User: anonymous   Login
Location: Stoke Bliss
(52.2667°N, 2.5167°W)
Time: 14:48:52
(UTC+00:00)
Language:

Cosmos 2237 - Orbit

View from above orbital plane
View from above orbital plane
View from above satellite
View from above satellite

Ground track
Ground track

The orbit data is extracted from the following two-line orbital elements,

1 22565U 93016A   21129.17645232 -.00000062  00000-0 -72224-5 0  9996
2 22565  70.8479 290.2433 0006662 178.0316 182.0831 14.12514479450275
Epoch (UTC): 09 May 2021 04:14:05
Eccentricity: 0.0006662
inclination: 70.8479°
perigee height: 846 km
apogee height: 855 km
right ascension of ascending node: 290.2433°
argument of perigee: 178.0316°
revolutions per day: 14.12514479
mean anomaly at epoch: 182.0831°
orbit number at epoch: 45027

The dashed part of the orbit path shows where the satellite is in the earth's shadow,  

DLR